ACA1047 KPSP-CYVR

Flight info

Callsign ACA1047
Flight time N/A
Altitude 36000
Route YUCCA1 PMD J6 LANDO DCT FMG J5 HARTT DCT SUMMA J5 SEA DCT PAE GRIZZ9
Aircraft A321/M-SDE3FGHIRWY/LB1

Departure

Time 2026-04-28 16:54
Airport Palm Springs International Airport (KPSP)

Arrival

Time N/A
Airport Vancouver International Airport (CYVR)
Time Latitude Longitude Altitude Speed Heading
2026-04-28 16:18 33.82251 -116.50620 423 ft 0 kts 324°
2026-04-28 16:43 33.82252 -116.50618 417 ft 4 kts 348°
2026-04-28 16:44 33.82240 -116.50608 414 ft 4 kts 319°
2026-04-28 16:44 33.82218 -116.50588 418 ft 4 kts 328°
2026-04-28 16:44 33.82194 -116.50574 415 ft 4 kts 342°
2026-04-28 16:44 33.82176 -116.50568 416 ft 0 kts 354°
2026-04-28 16:47 33.82185 -116.50569 415 ft 6 kts 355°
2026-04-28 16:47 33.82196 -116.50569 413 ft 1 kts 13°
2026-04-28 16:47 33.82213 -116.50558 412 ft 5 kts 31°
2026-04-28 16:47 33.82248 -116.50515 418 ft 11 kts 51°
2026-04-28 16:48 33.82297 -116.50439 418 ft 12 kts 53°
2026-04-28 16:48 33.82273 -116.50353 415 ft 13 kts 141°
2026-04-28 16:48 33.82191 -116.50281 411 ft 16 kts 145°
2026-04-28 16:48 33.82097 -116.50199 409 ft 15 kts 145°
2026-04-28 16:49 33.82004 -116.50115 406 ft 18 kts 144°
2026-04-28 16:49 33.81929 -116.50046 410 ft 11 kts 144°
2026-04-28 16:49 33.81864 -116.49988 408 ft 11 kts 141°
2026-04-28 16:49 33.81814 -116.49936 406 ft 8 kts 127°
2026-04-28 16:50 33.81809 -116.49901 407 ft 0 kts 92°
2026-04-28 16:52 33.81809 -116.49896 407 ft 2 kts 84°
2026-04-28 16:52 33.81828 -116.49868 406 ft 5 kts 51°
2026-04-28 16:52 33.81858 -116.49828 407 ft 10 kts 46°
2026-04-28 16:53 33.81888 -116.49805 405 ft 1 kts 336°
2026-04-28 16:53 33.81890 -116.49808 406 ft 0 kts 321°
2026-04-28 16:53 33.81981 -116.49890 409 ft 51 kts 323°
2026-04-28 16:53 33.82464 -116.50317 411 ft 118 kts 323°
2026-04-28 16:54 33.83267 -116.51031 465 ft 166 kts 323°
2026-04-28 16:54 33.84168 -116.51852 1191 ft 160 kts 321°
2026-04-28 16:54 33.85052 -116.52648 1915 ft 157 kts 323°
2026-04-28 16:54 33.85952 -116.53415 2514 ft 163 kts 326°
2026-04-28 16:55 33.86944 -116.54232 2812 ft 184 kts 326°
2026-04-28 16:55 33.88040 -116.55157 3112 ft 201 kts 326°
2026-04-28 16:55 33.89236 -116.56165 3380 ft 219 kts 326°
2026-04-28 16:55 33.90608 -116.57056 3791 ft 230 kts 349°
2026-04-28 16:56 33.92187 -116.56834 4358 ft 236 kts 28°
2026-04-28 16:56 33.93494 -116.55627 5039 ft 239 kts 45°
2026-04-28 16:56 33.94672 -116.54215 5782 ft 241 kts 48°
2026-04-28 16:56 33.95885 -116.52788 6375 ft 252 kts 40°
2026-04-28 16:57 33.97428 -116.51699 6719 ft 272 kts 20°
2026-04-28 16:57 33.99328 -116.51333 7226 ft 283 kts 358°
2026-04-28 16:57 34.01307 -116.51567 7902 ft 287 kts 354°
2026-04-28 16:57 34.03310 -116.51757 8622 ft 291 kts 355°
2026-04-28 16:58 34.05342 -116.51881 9347 ft 293 kts 356°
2026-04-28 16:58 34.07389 -116.51981 10041 ft 296 kts 355°
2026-04-28 16:58 34.09504 -116.52117 10308 ft 315 kts 351°
2026-04-28 16:58 34.11719 -116.52629 10430 ft 334 kts 341°
2026-04-28 16:59 34.13995 -116.53509 10555 ft 353 kts 340°
2026-04-28 16:59 34.16367 -116.54448 10936 ft 362 kts 339°
2026-04-28 16:59 34.18778 -116.55401 11490 ft 366 kts 339°
2026-04-28 16:59 34.21213 -116.56360 12088 ft 370 kts 339°
2026-04-28 17:00 34.23669 -116.57326 12681 ft 373 kts 339°
2026-04-28 17:00 34.26147 -116.58302 13277 ft 376 kts 339°
2026-04-28 17:00 34.28642 -116.59283 13859 ft 378 kts 338°
2026-04-28 17:00 34.31157 -116.60270 14362 ft 381 kts 338°
2026-04-28 17:01 34.33689 -116.61264 14850 ft 384 kts 338°
2026-04-28 17:01 34.36240 -116.62269 15335 ft 387 kts 338°
2026-04-28 17:01 34.38810 -116.63281 15815 ft 390 kts 338°
2026-04-28 17:01 34.41398 -116.64304 16299 ft 393 kts 337°
2026-04-28 17:02 34.43986 -116.65383 16761 ft 393 kts 332°
2026-04-28 17:02 34.45619 -116.66397 17059 ft 390 kts 323°
2026-04-28 17:02 34.48334 -116.69177 17626 ft 385 kts 307°
2026-04-28 17:02 34.49854 -116.71820 18051 ft 381 kts 294°
2026-04-28 17:03 34.51306 -116.77907 18845 ft 377 kts 274°
2026-04-28 17:03 34.51606 -116.81066 19238 ft 378 kts 274°
2026-04-28 17:03 34.51908 -116.84232 19655 ft 378 kts 274°
2026-04-28 17:04 34.52514 -116.90584 20480 ft 380 kts 274°
2026-04-28 17:04 34.52820 -116.93772 20892 ft 381 kts 274°
2026-04-28 17:05 34.53439 -117.00173 21749 ft 383 kts 273°
2026-04-28 17:05 34.53750 -117.03386 22158 ft 384 kts 273°
2026-04-28 17:05 34.54061 -117.06611 22602 ft 385 kts 273°
2026-04-28 17:06 34.54675 -117.13084 23440 ft 389 kts 272°
2026-04-28 17:06 34.54985 -117.16350 23782 ft 391 kts 272°
2026-04-28 17:06 34.55602 -117.22914 24532 ft 392 kts 272°
2026-04-28 17:07 34.55909 -117.26213 24887 ft 393 kts 272°
2026-04-28 17:07 34.56215 -117.29511 25238 ft 394 kts 272°
2026-04-28 17:07 34.56522 -117.32811 25577 ft 394 kts 272°
2026-04-28 17:07 34.56829 -117.36121 25918 ft 395 kts 272°
2026-04-28 17:08 34.57134 -117.39436 26241 ft 396 kts 272°
2026-04-28 17:08 34.57439 -117.42758 26573 ft 396 kts 272°
2026-04-28 17:08 34.57741 -117.46041 26892 ft 397 kts 272°
2026-04-28 17:08 34.58049 -117.49374 27192 ft 398 kts 272°
2026-04-28 17:09 34.58360 -117.52761 27465 ft 399 kts 271°
2026-04-28 17:09 34.58664 -117.56111 27729 ft 400 kts 271°
2026-04-28 17:09 34.58964 -117.59414 27971 ft 400 kts 271°
2026-04-28 17:09 34.59270 -117.62774 28206 ft 401 kts 271°
2026-04-28 17:10 34.59577 -117.66141 28407 ft 402 kts 271°
2026-04-28 17:10 34.59883 -117.69512 28637 ft 402 kts 271°
2026-04-28 17:10 34.60187 -117.72881 28895 ft 401 kts 271°
2026-04-28 17:10 34.60486 -117.76239 29198 ft 399 kts 271°
2026-04-28 17:11 34.60783 -117.79581 29542 ft 397 kts 271°
2026-04-28 17:11 34.61080 -117.82908 29864 ft 395 kts 271°
2026-04-28 17:11 34.61376 -117.86216 30184 ft 393 kts 271°
2026-04-28 17:11 34.61671 -117.89508 30456 ft 391 kts 271°
2026-04-28 17:12 34.61962 -117.92786 30726 ft 390 kts 271°
2026-04-28 17:12 34.62247 -117.96050 30994 ft 388 kts 270°
2026-04-28 17:12 34.62530 -117.99302 31260 ft 387 kts 270°
2026-04-28 17:12 34.62868 -118.02532 31511 ft 389 kts 275°
2026-04-28 17:13 34.63640 -118.05704 31756 ft 397 kts 284°
2026-04-28 17:13 34.64919 -118.08714 31996 ft 407 kts 294°
2026-04-28 17:13 34.66668 -118.11476 32225 ft 416 kts 300°
2026-04-28 17:13 34.68536 -118.14157 32460 ft 415 kts 300°
2026-04-28 17:14 34.70401 -118.16831 32696 ft 414 kts 300°
2026-04-28 17:14 34.72262 -118.19508 32951 ft 413 kts 299°
2026-04-28 17:14 34.74110 -118.22176 33251 ft 411 kts 299°
2026-04-28 17:14 34.75942 -118.24828 33538 ft 409 kts 299°
2026-04-28 17:15 34.77768 -118.27473 33820 ft 408 kts 299°
2026-04-28 17:15 34.79588 -118.30111 34087 ft 406 kts 298°
2026-04-28 17:15 34.81400 -118.32742 34303 ft 405 kts 298°
2026-04-28 17:15 34.83208 -118.35367 34496 ft 404 kts 298°
2026-04-28 17:16 34.85014 -118.37986 34666 ft 404 kts 298°
2026-04-28 17:16 34.86828 -118.40617 34811 ft 405 kts 298°
2026-04-28 17:16 34.88634 -118.43240 34972 ft 405 kts 298°
2026-04-28 17:16 34.90443 -118.45869 35162 ft 405 kts 298°
2026-04-28 17:17 34.92248 -118.48497 35352 ft 404 kts 298°
2026-04-28 17:17 34.94025 -118.51090 35544 ft 404 kts 298°
2026-04-28 17:17 34.95821 -118.53716 35716 ft 403 kts 298°
2026-04-28 17:17 34.97617 -118.56341 35856 ft 403 kts 299°
2026-04-28 17:18 34.99612 -118.58813 36006 ft 417 kts 309°
2026-04-28 17:18 35.02045 -118.60857 36139 ft 435 kts 320°
2026-04-28 17:18 35.04891 -118.62320 36177 ft 454 kts 332°
2026-04-28 17:18 35.08035 -118.63123 36216 ft 466 kts 339°
2026-04-28 17:19 35.14413 -118.64451 36177 ft 464 kts 338°
2026-04-28 17:19 35.20761 -118.65851 36138 ft 463 kts 338°
2026-04-28 17:20 35.26030 -118.67017 36142 ft 464 kts 338°
2026-04-28 17:20 35.33472 -118.68646 36181 ft 465 kts 338°
2026-04-28 17:21 35.39835 -118.70037 36178 ft 464 kts 338°
2026-04-28 17:22 35.49368 -118.72123 36172 ft 464 kts 338°
2026-04-28 17:22 35.55709 -118.73519 36166 ft 462 kts 338°
2026-04-28 17:23 35.65197 -118.75600 36154 ft 462 kts 338°
2026-04-28 17:23 35.71522 -118.77001 36176 ft 462 kts 338°
2026-04-28 17:24 35.77853 -118.78397 36169 ft 462 kts 338°
2026-04-28 17:24 35.84186 -118.79788 36164 ft 462 kts 338°
2026-04-28 17:25 35.93676 -118.81895 36168 ft 462 kts 338°
2026-04-28 17:26 35.99995 -118.83304 36154 ft 461 kts 338°
2026-04-28 17:26 36.06308 -118.84705 36146 ft 461 kts 338°
2026-04-28 17:27 36.12623 -118.86105 36162 ft 461 kts 339°
2026-04-28 17:27 36.18937 -118.87514 36147 ft 461 kts 338°
2026-04-28 17:28 36.25256 -118.88930 36126 ft 462 kts 338°
2026-04-28 17:28 36.34749 -118.91046 36156 ft 462 kts 340°
2026-04-28 17:29 36.41056 -118.92456 36134 ft 460 kts 340°
2026-04-28 17:30 36.50462 -118.94588 36110 ft 460 kts 340°
2026-04-28 17:30 36.59930 -118.96713 36128 ft 461 kts 340°
2026-04-28 17:31 36.69392 -118.98858 36119 ft 461 kts 340°
2026-04-28 17:32 36.77787 -119.00750 36136 ft 461 kts 341°
2026-04-28 17:32 36.84097 -119.02182 36125 ft 461 kts 341°
2026-04-28 17:33 36.90404 -119.03615 36105 ft 460 kts 341°
2026-04-28 17:33 36.95639 -119.04807 36108 ft 460 kts 341°
2026-04-28 17:34 37.02995 -119.06481 36103 ft 460 kts 341°
2026-04-28 17:34 37.09297 -119.07925 36106 ft 460 kts 341°
2026-04-28 17:35 37.15590 -119.09372 36125 ft 460 kts 342°
2026-04-28 17:35 37.21878 -119.10815 36112 ft 459 kts 342°
2026-04-28 17:36 37.28159 -119.12256 36107 ft 459 kts 342°
2026-04-28 17:36 37.34443 -119.13700 36130 ft 459 kts 342°
2026-04-28 17:37 37.40718 -119.15149 36127 ft 459 kts 343°
2026-04-28 17:37 37.46991 -119.16596 36132 ft 459 kts 343°
2026-04-28 17:38 37.53276 -119.18044 36127 ft 459 kts 342°
2026-04-28 17:38 37.59547 -119.19499 36150 ft 458 kts 343°
2026-04-28 17:39 37.65768 -119.20939 36149 ft 458 kts 343°
2026-04-28 17:40 37.75163 -119.23121 36174 ft 457 kts 343°
2026-04-28 17:40 37.81426 -119.24584 36168 ft 457 kts 343°
2026-04-28 17:41 37.87671 -119.26045 36161 ft 456 kts 343°
2026-04-28 17:41 37.93916 -119.27505 36178 ft 456 kts 344°
2026-04-28 17:42 38.00165 -119.28965 36173 ft 456 kts 344°
2026-04-28 17:42 38.06401 -119.30435 36168 ft 456 kts 344°
2026-04-28 17:43 38.12633 -119.31897 36186 ft 456 kts 345°
2026-04-28 17:43 38.18870 -119.33363 36178 ft 455 kts 345°
2026-04-28 17:44 38.25017 -119.34808 36168 ft 455 kts 345°
2026-04-28 17:44 38.31330 -119.36301 36163 ft 455 kts 345°
2026-04-28 17:45 38.37548 -119.37783 36176 ft 454 kts 345°
2026-04-28 17:45 38.43721 -119.39253 36161 ft 454 kts 345°
2026-04-28 17:46 38.49934 -119.40720 36147 ft 454 kts 345°
2026-04-28 17:46 38.56136 -119.42183 36161 ft 453 kts 346°
2026-04-28 17:47 38.62331 -119.43652 36150 ft 453 kts 346°
2026-04-28 17:47 38.68524 -119.45135 36149 ft 452 kts 346°
2026-04-28 17:48 38.74712 -119.46612 36156 ft 452 kts 346°
2026-04-28 17:48 38.80871 -119.48092 36165 ft 452 kts 346°
2026-04-28 17:49 38.87050 -119.49586 36181 ft 452 kts 346°
2026-04-28 17:49 38.93235 -119.51069 36190 ft 452 kts 346°
2026-04-28 17:50 38.99417 -119.52554 36197 ft 452 kts 346°
2026-04-28 17:50 39.05600 -119.54043 36196 ft 452 kts 347°
2026-04-28 17:51 39.11761 -119.55514 36224 ft 450 kts 347°
2026-04-28 17:51 39.17912 -119.57013 36233 ft 449 kts 347°
2026-04-28 17:52 39.24038 -119.58510 36231 ft 448 kts 347°
2026-04-28 17:52 39.33219 -119.60741 36222 ft 447 kts 347°
2026-04-28 17:53 39.39282 -119.62213 36224 ft 446 kts 347°
2026-04-28 17:53 39.45349 -119.63689 36246 ft 446 kts 348°
2026-04-28 17:54 39.51413 -119.65175 36250 ft 445 kts 348°
2026-04-28 17:54 39.57475 -119.66724 36242 ft 444 kts 347°
2026-04-28 17:55 39.63519 -119.68409 36237 ft 444 kts 346°
2026-04-28 17:55 39.69540 -119.70117 36237 ft 443 kts 346°
2026-04-28 17:56 39.75549 -119.71793 36229 ft 443 kts 347°
2026-04-28 17:56 39.81576 -119.73450 36227 ft 443 kts 347°
2026-04-28 17:57 39.87565 -119.75101 36212 ft 442 kts 347°
2026-04-28 17:57 39.93570 -119.76767 36198 ft 441 kts 347°
2026-04-28 17:58 39.99572 -119.78440 36184 ft 441 kts 347°
2026-04-28 17:58 40.05561 -119.80109 36183 ft 439 kts 347°
2026-04-28 17:59 40.11533 -119.81769 36180 ft 438 kts 347°
2026-04-28 17:59 40.17476 -119.83422 36150 ft 434 kts 348°
2026-04-28 18:00 40.23344 -119.85066 36157 ft 429 kts 348°
2026-04-28 18:00 40.29164 -119.86704 36163 ft 429 kts 348°
2026-04-28 18:01 40.35001 -119.88345 36160 ft 429 kts 348°
2026-04-28 18:01 40.40807 -119.89978 36159 ft 425 kts 348°
2026-04-28 18:02 40.46589 -119.91609 36162 ft 425 kts 348°
2026-04-28 18:02 40.52370 -119.93244 36165 ft 425 kts 348°
2026-04-28 18:03 40.58143 -119.94881 36182 ft 424 kts 349°
2026-04-28 18:03 40.63855 -119.96499 36185 ft 424 kts 349°
2026-04-28 18:04 40.69618 -119.98140 36184 ft 423 kts 348°
2026-04-28 18:04 40.75374 -119.99785 36184 ft 423 kts 349°
2026-04-28 18:05 40.80188 -120.01156 36182 ft 423 kts 349°
2026-04-28 18:05 40.86864 -120.03088 36180 ft 422 kts 348°
2026-04-28 18:06 40.92566 -120.04858 36184 ft 421 kts 348°
2026-04-28 18:06 40.98254 -120.06659 36184 ft 419 kts 348°
2026-04-28 18:07 41.03931 -120.08438 36181 ft 419 kts 348°
2026-04-28 18:07 41.09592 -120.10190 36188 ft 417 kts 348°
2026-04-28 18:08 41.15227 -120.11925 36190 ft 415 kts 348°
2026-04-28 18:08 41.20841 -120.13676 36197 ft 414 kts 348°
2026-04-28 18:09 41.26446 -120.15436 36186 ft 413 kts 349°
2026-04-28 18:09 41.32033 -120.17186 36198 ft 412 kts 349°
2026-04-28 18:10 41.37616 -120.18931 36205 ft 412 kts 349°
2026-04-28 18:10 41.43191 -120.20683 36204 ft 411 kts 349°
2026-04-28 18:11 41.48751 -120.22431 36207 ft 410 kts 349°
2026-04-28 18:11 41.54257 -120.24168 36220 ft 409 kts 349°
2026-04-28 18:12 41.59818 -120.25919 36205 ft 408 kts 350°
2026-04-28 18:12 41.65288 -120.27642 36223 ft 406 kts 349°
2026-04-28 18:13 41.70768 -120.29374 36240 ft 404 kts 349°
2026-04-28 18:13 41.76244 -120.31121 36233 ft 404 kts 349°
2026-04-28 18:14 41.81703 -120.32857 36232 ft 403 kts 349°
2026-04-28 18:14 41.87149 -120.34586 36237 ft 402 kts 349°
2026-04-28 18:15 41.92583 -120.36325 36242 ft 401 kts 349°
2026-04-28 18:15 41.98001 -120.38061 36243 ft 400 kts 350°
2026-04-28 18:16 42.03410 -120.39790 36249 ft 399 kts 350°
2026-04-28 18:16 42.08810 -120.41515 36250 ft 398 kts 350°
2026-04-28 18:17 42.14198 -120.43244 36252 ft 398 kts 350°
2026-04-28 18:17 42.19581 -120.44981 36242 ft 398 kts 350°
2026-04-28 18:18 42.24962 -120.46724 36240 ft 397 kts 350°
2026-04-28 18:18 42.29427 -120.48165 36239 ft 397 kts 350°
2026-04-28 18:19 42.31243 -120.48749 36224 ft 397 kts 350°